Time,TemperatureF,DewpointF,PressureIn,WindDirection,WindDirectionDegrees,WindSpeedMPH,WindSpeedGustMPH,Humidity,HourlyPrecipIn,Conditions,Clouds,dailyrainin,SolarRadiationWatts/m^2,SoftwareType,DateUTC
2013-01-19 00:00:00,47.0,36.0,30.25,ESE,123,4.0,9.0,66,0.00,,,0.00,0,weatherlink.com 1.10,2013-01-19 06:00:00,
2013-01-19 00:15:00,46.8,36.0,30.25,SE,129,6.0,9.0,67,0.00,,,0.00,0,weatherlink.com 1.10,2013-01-19 06:15:00,
2013-01-19 00:30:00,46.1,36.0,30.24,SE,130,5.0,8.0,68,0.00,,,0.00,0,weatherlink.com 1.10,2013-01-19 06:30:00,
2013-01-19 00:45:00,45.1,36.0,30.24,SE,143,9.0,10.0,71,0.00,,,0.00,0,weatherlink.com 1.10,2013-01-19 06:45:00,
2013-01-19 01:00:00,45.0,36.0,30.24,SSE,147,8.0,11.0,71,0.00,,,0.00,0,weatherlink.com 1.10,2013-01-19 07:00:00,
2013-01-19 01:15:00,44.7,36.0,30.24,SSE,149,5.0,10.0,72,0.00,,,0.00,0,weatherlink.com 1.10,2013-01-19 07:15:00,
2013-01-19 01:30:00,45.6,37.0,30.24,SSE,154,6.0,13.0,72,0.00,,,0.00,0,weatherlink.com 1.10,2013-01-19 07:30:00,
2013-01-19 01:45:00,45.5,37.0,30.24,SSE,150,7.0,13.0,73,0.00,,,0.00,0,weatherlink.com 1.10,2013-01-19 07:45:00,
2013-01-19 02:00:00,45.1,38.0,30.24,SSE,154,6.0,11.0,75,0.00,,,0.00,0,weatherlink.com 1.10,2013-01-19 08:00:00,
2013-01-19 02:15:00,45.0,38.0,30.24,SSE,154,6.0,10.0,76,0.00,,,0.00,0,weatherlink.com 1.10,2013-01-19 08:15:00,
2013-01-19 02:30:00,44.5,38.0,30.24,SSE,156,3.0,6.0,77,0.00,,,0.00,0,weatherlink.com 1.10,2013-01-19 08:30:00,
2013-01-19 02:45:00,43.8,38.0,30.24,SSE,155,5.0,7.0,79,0.00,,,0.00,0,weatherlink.com 1.10,2013-01-19 08:45:00,
2013-01-19 03:00:00,43.3,38.0,30.23,SSE,155,3.0,7.0,80,0.00,,,0.00,0,weatherlink.com 1.10,2013-01-19 09:00:00,
2013-01-19 03:15:00,43.4,38.0,30.23,SSE,156,5.0,8.0,81,0.00,,,0.00,0,weatherlink.com 1.10,2013-01-19 09:15:00,
2013-01-19 03:31:00,43.2,38.0,30.23,SSE,156,4.0,7.0,81,0.00,,,0.00,0,weatherlink.com 1.10,2013-01-19 09:31:00,
2013-01-19 03:46:00,43.1,38.0,30.22,SSE,156,3.0,6.0,82,0.00,,,0.00,0,weatherlink.com 1.10,2013-01-19 09:46:00,
2013-01-19 04:01:00,43.0,38.0,30.23,SSE,156,1.0,5.0,82,0.00,,,0.00,0,weatherlink.com 1.10,2013-01-19 10:01:00,
2013-01-19 04:16:00,42.7,38.0,30.22,SSE,156,2.0,3.0,83,0.00,,,0.00,0,weatherlink.com 1.10,2013-01-19 10:16:00,
2013-01-19 04:31:00,42.4,38.0,30.22,SSE,156,2.0,3.0,84,0.00,,,0.00,0,weatherlink.com 1.10,2013-01-19 10:31:00,
2013-01-19 04:46:00,42.9,38.0,30.22,SSE,156,4.0,5.0,84,0.00,,,0.00,0,weatherlink.com 1.10,2013-01-19 10:46:00,
2013-01-19 07:01:00,41.2,38.0,30.22,SSE,156,4.0,6.0,88,0.00,,,0.00,0,weatherlink.com 1.10,2013-01-19 13:01:00,
2013-01-19 07:16:00,41.0,38.0,30.22,SSE,155,5.0,6.0,88,0.00,,,0.00,0,weatherlink.com 1.10,2013-01-19 13:16:00,
2013-01-19 07:46:00,40.5,38.0,30.23,SSE,156,4.0,6.0,89,0.00,,,0.00,25,weatherlink.com 1.10,2013-01-19 13:46:00,
2013-01-19 08:01:00,40.8,38.0,30.23,SSE,156,2.0,4.0,88,0.00,,,0.00,37,weatherlink.com 1.10,2013-01-19 14:01:00,
2013-01-19 08:16:00,41.4,38.0,30.23,SSE,156,2.0,5.0,88,0.00,,,0.00,83,weatherlink.com 1.10,2013-01-19 14:16:00,
2013-01-19 08:31:00,41.7,38.0,30.24,SSE,156,4.0,5.0,87,0.00,,,0.00,91,weatherlink.com 1.10,2013-01-19 14:31:00,
2013-01-19 09:01:00,43.1,39.0,30.24,SSE,156,7.0,8.0,86,0.00,,,0.00,220,weatherlink.com 1.10,2013-01-19 15:01:00,
2013-01-19 09:16:00,44.4,41.0,30.25,SSE,157,4.0,10.0,86,0.00,,,0.00,253,weatherlink.com 1.10,2013-01-19 15:16:00,
2013-01-19 09:31:00,46.1,42.0,30.25,SSE,152,10.0,12.0,85,0.00,,,0.00,318,weatherlink.com 1.10,2013-01-19 15:31:00,
2013-01-19 09:46:00,47.8,43.0,30.26,SE,145,7.0,12.0,84,0.00,,,0.00,366,weatherlink.com 1.10,2013-01-19 15:46:00,
2013-01-19 10:01:00,49.4,44.0,30.27,SSE,154,6.0,10.0,82,0.00,,,0.00,424,weatherlink.com 1.10,2013-01-19 16:01:00,
2013-01-19 10:17:00,51.3,45.0,30.26,SSE,157,8.0,10.0,79,0.00,,,0.00,461,weatherlink.com 1.10,2013-01-19 16:17:00,
2013-01-19 10:32:00,53.0,46.0,30.26,South,174,8.0,14.0,77,0.00,,,0.00,445,weatherlink.com 1.10,2013-01-19 16:32:00,
2013-01-19 10:47:00,54.1,46.0,30.25,SSE,153,14.0,17.0,75,0.00,,,0.00,515,weatherlink.com 1.10,2013-01-19 16:47:00,
2013-01-19 11:02:00,54.4,46.0,30.25,SSE,164,9.0,18.0,74,0.00,,,0.00,547,weatherlink.com 1.10,2013-01-19 17:02:00,
2013-01-19 11:17:00,55.4,46.0,30.23,SSE,168,8.0,18.0,71,0.00,,,0.00,543,weatherlink.com 1.10,2013-01-19 17:17:00,
2013-01-19 11:32:00,56.7,47.0,30.22,SSE,154,12.0,17.0,70,0.00,,,0.00,566,weatherlink.com 1.10,2013-01-19 17:32:00,
2013-01-19 11:47:00,58.2,47.0,30.21,South,180,9.0,16.0,67,0.00,,,0.00,626,weatherlink.com 1.10,2013-01-19 17:47:00,
2013-01-19 12:02:00,58.6,48.0,30.20,SSE,160,12.0,19.0,67,0.00,,,0.00,631,weatherlink.com 1.10,2013-01-19 18:02:00,
2013-01-19 12:47:00,57.7,47.0,30.17,SSE,156,8.0,19.0,67,0.00,,,0.00,311,weatherlink.com 1.10,2013-01-19 18:47:00,
2013-01-19 13:02:00,58.7,47.0,30.16,SSE,148,14.0,16.0,66,0.00,,,0.00,510,weatherlink.com 1.10,2013-01-19 19:02:00,
2013-01-19 13:47:00,59.7,47.0,30.13,SSE,153,12.0,18.0,63,0.00,,,0.00,320,weatherlink.com 1.10,2013-01-19 19:47:00,
2013-01-19 14:02:00,60.1,47.0,30.13,SE,137,12.0,17.0,63,0.00,,,0.00,381,weatherlink.com 1.10,2013-01-19 20:02:00,
2013-01-19 14:17:00,59.7,46.0,30.12,SSE,154,17.0,19.0,62,0.00,,,0.00,473,weatherlink.com 1.10,2013-01-19 20:17:00,
2013-01-19 14:32:00,60.0,47.0,30.12,SSE,155,12.0,15.0,63,0.00,,,0.00,494,weatherlink.com 1.10,2013-01-19 20:32:00,
2013-01-19 14:47:00,60.9,47.0,30.11,SSE,167,8.0,16.0,61,0.00,,,0.00,483,weatherlink.com 1.10,2013-01-19 20:47:00,
2013-01-19 15:03:00,61.8,48.0,30.11,South,177,11.0,14.0,60,0.00,,,0.00,308,weatherlink.com 1.10,2013-01-19 21:03:00,
2013-01-19 15:18:00,62.4,47.0,30.11,SSE,166,6.0,16.0,58,0.00,,,0.00,320,weatherlink.com 1.10,2013-01-19 21:18:00,
2013-01-19 15:48:00,61.8,48.0,30.12,SSE,162,5.0,12.0,60,0.00,,,0.00,230,weatherlink.com 1.10,2013-01-19 21:48:00,
2013-01-19 16:03:00,62.1,47.0,30.12,SSE,165,3.0,10.0,59,0.00,,,0.00,139,weatherlink.com 1.10,2013-01-19 22:03:00,
2013-01-19 16:18:00,62.5,47.0,30.12,SSE,167,3.0,7.0,58,0.00,,,0.00,174,weatherlink.com 1.10,2013-01-19 22:18:00,
2013-01-19 16:33:00,62.6,47.0,30.12,South,169,4.0,8.0,58,0.00,,,0.00,209,weatherlink.com 1.10,2013-01-19 22:33:00,
2013-01-19 16:48:00,62.5,48.0,30.11,SSE,152,6.0,8.0,59,0.00,,,0.00,155,weatherlink.com 1.10,2013-01-19 22:48:00,
2013-01-19 17:03:00,62.5,48.0,30.12,SSE,149,5.0,10.0,59,0.00,,,0.00,84,weatherlink.com 1.10,2013-01-19 23:03:00,
2013-01-19 17:18:00,62.4,48.0,30.12,SSE,149,4.0,7.0,60,0.00,,,0.00,51,weatherlink.com 1.10,2013-01-19 23:18:00,
2013-01-19 17:33:00,61.8,48.0,30.12,SSE,149,4.0,6.0,60,0.00,,,0.00,23,weatherlink.com 1.10,2013-01-19 23:33:00,
2013-01-19 17:48:00,60.8,48.0,30.11,SSE,149,3.0,6.0,62,0.00,,,0.00,5,weatherlink.com 1.10,2013-01-19 23:48:00,
2013-01-19 18:18:00,59.1,47.0,30.12,SSE,149,2.0,3.0,65,0.00,,,0.00,0,weatherlink.com 1.10,2013-01-20 00:18:00,
2013-01-19 18:33:00,58.5,47.0,30.13,SSE,149,4.0,6.0,65,0.00,,,0.00,0,weatherlink.com 1.10,2013-01-20 00:33:00,
2013-01-19 18:48:00,57.4,46.0,30.12,SSE,149,6.0,8.0,66,0.00,,,0.00,0,weatherlink.com 1.10,2013-01-20 00:48:00,
2013-01-19 19:03:00,56.6,46.0,30.13,SSE,149,2.0,6.0,68,0.00,,,0.00,0,weatherlink.com 1.10,2013-01-20 01:03:00,
2013-01-19 19:33:00,55.9,46.0,30.13,SSE,149,2.0,5.0,69,0.00,,,0.00,0,weatherlink.com 1.10,2013-01-20 01:33:00,
2013-01-19 19:48:00,55.1,45.0,30.14,SSE,149,3.0,4.0,70,0.00,,,0.00,0,weatherlink.com 1.10,2013-01-20 01:48:00,
2013-01-19 20:03:00,54.6,45.0,30.15,SSE,149,3.0,3.0,70,0.00,,,0.00,0,weatherlink.com 1.10,2013-01-20 02:03:00,
2013-01-19 20:18:00,54.9,45.0,30.15,SSE,149,3.0,5.0,70,0.00,,,0.00,0,weatherlink.com 1.10,2013-01-20 02:18:00,
2013-01-19 20:48:00,54.4,45.0,30.16,SSE,149,2.0,5.0,70,0.00,,,0.00,0,weatherlink.com 1.10,2013-01-20 02:48:00,
2013-01-19 21:18:00,52.9,44.0,30.16,SSE,149,5.0,5.0,73,0.00,,,0.00,0,weatherlink.com 1.10,2013-01-20 03:18:00,
2013-01-19 21:33:00,52.8,44.0,30.16,SSE,149,4.0,5.0,73,0.00,,,0.00,0,weatherlink.com 1.10,2013-01-20 03:33:00,
2013-01-19 21:48:00,52.2,44.0,30.16,SSE,149,4.0,6.0,74,0.00,,,0.00,0,weatherlink.com 1.10,2013-01-20 03:48:00,
2013-01-19 22:03:00,51.6,44.0,30.17,SSE,149,3.0,4.0,76,0.00,,,0.00,0,weatherlink.com 1.10,2013-01-20 04:03:00,
2013-01-19 22:18:00,51.0,44.0,30.17,SSE,149,3.0,4.0,77,0.00,,,0.00,0,weatherlink.com 1.10,2013-01-20 04:18:00,
2013-01-19 22:33:00,50.9,44.0,30.18,SSE,149,1.0,3.0,78,0.00,,,0.00,0,weatherlink.com 1.10,2013-01-20 04:33:00,
2013-01-19 22:48:00,50.3,44.0,30.18,SSE,149,2.0,4.0,79,0.00,,,0.00,0,weatherlink.com 1.10,2013-01-20 04:48:00,
2013-01-19 23:03:00,50.2,44.0,30.18,SSE,149,2.0,3.0,80,0.00,,,0.00,0,weatherlink.com 1.10,2013-01-20 05:03:00,
2013-01-19 23:18:00,49.3,43.0,30.19,SSE,149,2.0,3.0,80,0.00,,,0.00,0,weatherlink.com 1.10,2013-01-20 05:18:00,
2013-01-19 23:33:00,48.9,44.0,30.18,SSE,149,2.0,4.0,82,0.00,,,0.00,0,weatherlink.com 1.10,2013-01-20 05:33:00,
2013-01-19 23:48:00,48.6,44.0,30.18,SSE,149,1.0,3.0,83,0.00,,,0.00,0,weatherlink.com 1.10,2013-01-20 05:48:00,